Regional Weather Roundup
Issued by NWS

Home | Current Version | Previous Version | Graphics & Text | Print | Product List | Glossary On
Versions: 1 2 3 4 5 6 7 8 9 10 11 12 13 14 15 16 17 18 19 20 21 22 23 24 25 26 27 28 29 30 31 32 33 34 35 36 37 38 39 40 41 42 43 44 45 46 47 48 49 50
000
ASUS43 KOAX 292302
RWRNE

WEATHER ROUNDUP FOR NEBRASKA
NATIONAL WEATHER SERVICE OMAHA NE
600 PM CDT SAT AUG 29 2015

NOTES: SATELLITE DATA IS BEING USED TO AUGMENT CLOUD COVER ABOVE
       12000 FEET.
       "FAIR" INDICATES FEW OR NO CLOUDS BELOW 12,000 FEET WITH NO
       SIGNIFICANT WEATHER AND/OR OBSTRUCTIONS TO VISIBILITY.

  * THESE STATIONS DO NOT REPORT WEATHER SUCH AS RAIN...SNOW OR FOG.

NEZ001>004-019>022-054>056-300000-
NEBRASKA PANHANDLE

CITY           SKY/WX    TMP DP  RH WIND       PRES   REMARKS
SCOTTSBLUFF    SUNNY     91  45  20 S12       30.03F
ALLIANCE       SUNNY     92  36  14 S9G23     30.05F
CHADRON        SUNNY     95  43  16 S16       29.97F HAZE    HX  91
KIMBALL        SUNNY     86  37  17 S10       30.11F
SIDNEY         SUNNY     91  37  15 S13G22    30.10F
$$

NEZ057>060-069>072-079>082-300000-
SOUTHWEST NEBRASKA

CITY           SKY/WX    TMP DP  RH WIND       PRES   REMARKS
NORTH PLATTE   SUNNY     88  56  33 S6        30.04F
IMPERIAL       SUNNY     93  41  16 SE12      30.06F
LEXINGTON      SUNNY     85  62  46 SE9       30.05F
MC COOK        MOSUNNY   91  54  28 SE8       30.04F
OGALLALA       SUNNY     92  46  19 S6        30.06S
$$

NEZ005>010-023>029-035>040-094-300000-
NORTH CENTRAL NEBRASKA

CITY           SKY/WX    TMP DP  RH WIND       PRES   REMARKS
VALENTINE      SUNNY     92  47  21 S10       29.99F
AINSWORTH      SUNNY     87  61  41 S7        30.01F
BROKEN BOW     SUNNY     86  62  44 S8        30.04F
O`NEILL        SUNNY     84  65  52 S8        30.01F
ORD            SUNNY     85  59  41 SE7       30.01F
THEDFORD       SUNNY     91  54  29 S13       30.04F
$$

NEZ041-046>049-061>064-073>077-083>087-300000-
SOUTH CENTRAL NEBRASKA

CITY           SKY/WX    TMP DP  RH WIND       PRES   REMARKS
GRAND ISLAND   MOSUNNY   80  62  54 SE6       30.05F
AURORA         MOSUNNY   77  63  62 E3        30.05S
HASTINGS       SUNNY     80  62  54 NE7       30.05F
HEBRON         SUNNY     78  62  57 NE5       30.03S
HOLDREGE       SUNNY     81  61  50 E8        30.06S
KEARNEY *      SUNNY     82  64  54 E8        30.05F
YORK           MOSUNNY   75  66  73 CALM      30.04F
$$

NEZ011>018-030>034-042>045-300000-
NORTHEAST NEBRASKA

CITY           SKY/WX    TMP DP  RH WIND       PRES   REMARKS
NORFOLK        SUNNY     77  66  68 SE6       30.03S
ALBION         SUNNY     78  65  65 SE5       30.03F
BLAIR          FAIR      69  62  77 E3        30.05S
COLUMBUS *     MOSUNNY  N/A N/A N/A E5        30.03F
FREMONT        MOSUNNY   71  64  78 E5        30.04F
TEKAMAH        MOSUNNY   69  63  81 CALM      30.04S
$$

NEZ050>053-065>068-078-088>093-300000-
SOUTHEAST NEBRASKA

CITY           SKY/WX    TMP DP  RH WIND       PRES   REMARKS
LINCOLN        MOSUNNY   73  63  70 E6        30.05S
OMAHA EPPLEY   CLOUDY    72  63  73 CALM      30.04S
BEATRICE       MOSUNNY   69  62  80 E5        30.04S
FALLS CITY     CLOUDY    68  63  84 N7        30.04S
NEBRASKA CITY  PTSUNNY   67  62  83 N5        30.04F
PLATTSMOUTH    PTSUNNY   69  60  74 CALM      30.04F
$$

NEZ044-045-051>053-067-300000-
OMAHA AREA

CITY           SKY/WX    TMP DP  RH WIND       PRES   REMARKS
EPPLEY FIELD   CLOUDY    72  63  73 CALM      30.04S
BLAIR          MOSUNNY   69  62  77 E3        30.05S
FREMONT        MOSUNNY   71  64  78 E5        30.04F
MILLARD        MOSUNNY   71  62  74 CALM      30.04F
PLATTSMOUTH    PTSUNNY   69  60  74 CALM      30.04F
WAHOO          FAIR      71  64  77 SE5       30.04S
$$



USA.gov is the U.S. government's official web portal to all federal, state and local government web resources and services.